Location: Stilling
(56.0622°N, 9.9882°E)
Time: 00:05:13
(UTC+00:00)

Cosmos 2369 Rocket - Pass Details

Date: 13 July 2020
Orbit: 830 x 851 km, 71.0° (Epoch: 03 August)

Event Time Altitude Azimuth Distance (km) Brightness Sun altitude
Rises 23:16:56 0° 320° (NW) 3,387 6.2 -12.3°
Reaches altitude 10° 23:19:53 10° 305° (NW) 2,450 5.1 -12.3°
Maximum altitude 23:23:59 21° 258° (WSW) 1,785 3.8 -12.3°
Enters shadow 23:27:44 11° 213° (SSW) 2,350 4.0 -12.3°
